sat.trackr.live / text

‹ back to catalog

STARLINK-36338

NORAD 67704 · 2026-025M

PAYLOAD ACTIVE UNKNOWN

§ Identity

Operator
Country
US
Launch date
2026-02-07
Launch site
AFWTR
Launch vehicle
Mass (kg)
RCS (m²)

Purposes: comms

External: N2YO · Heavens-Above · Gunter

§ Orbital elements

Epoch: 2026-05-25T00:09:19.935936Z

Period
93.90 min
Inclination
97.2845°
Eccentricity
0.0001038
Mean motion
15.33465696 rev/d
Perigee alt
464.8 km
Apogee alt
466.2 km
Semi-major
6,843.6 km
B*
6.2599e-4
RAAN
256.5506°
Arg perigee
88.9826°
Mean anomaly
271.1535°
Rev number
1,770

§ Raw data

STARLINK-363381 67704U 26025M   26145.00648074  .00020201  00000+0  62599-3 0  99942 67704  97.2845 256.5506 0001038  88.9826 271.1535 15.33465696 17700

JSON: /api/v1/satellites/67704 · /tle

For live sub-satellite position, see the globe view (requires WebGL).

§ Visibility from observer

Set your observer location to see the next 7 days of passes ≥ 10°. The values pass through the URL so the page stays shareable.

No JS? Fill the form by hand. The geolocation button needs JavaScript.